Terminal Aerodrome Forecast
Issued by NWS

Current Version | Previous Version | Graphics & Text | Print | Product List | Glossary On
Versions: 1 2 3 4 5 6 7 8 9 10 11 12 13 14 15 16 17 18 19 20
000
FTUS41 KILN 032300
TAFLCK
TAF
KLCK 032329Z 0400/0424 20007KT 1/4SM -RA OVC005
     FM040200 26008KT 4SM -RA BR OVC005
      TEMPO 0411/0413 2SM -SN BR OVC008
     FM041300 33010KT 4SM BR OVC012
     FM042200 33012KT 1 1/2SM -SN BR OVC007=

USA.gov is the U.S. government's official web portal to all federal, state and local government web resources and services.